Regional Weather Roundup
Issued by NWS Midland/Odessa, TX

Skip options and go directly to product.
Home | Oldest Version | Next Version | Current Version | All | Text Only | Save Text | Print | Product List | Glossary On

Skip product version selection by date and time.   
422
ASUS44 KMAF 261901
RWRMAF
MIDLAND AREA WEATHER ROUNDUP
NATIONAL WEATHER SERVICE MIDLAND TX
200 PM CDT THU MAR 26 2015

...IN SOUTHWEST TEXAS AND SOUTHEAST NEW MEXICO...

CITY           SKY/WX    TMP DP  RH WIND       PRES   REMARKS
ALPINE         SUNNY     52  34  50 E9        30.37F
ANDREWS        FAIR      54  25  31 NE3       30.31F
ARTESIA        SUNNY     55  21  26 CALM      30.33F
BIG SPRING     SUNNY     61  25  25 NW12G17   30.31F
CARLSBAD       SUNNY     58  22  24 VRB6      30.32F
DRYDEN           N/A     63  38  39 N17G28    30.24F
FORT STOCKTON  SUNNY     56  36  47 N13G20    30.32F
GUAD PASS      SUNNY     50  22  33 E23       30.31F
HOBBS          SUNNY     55  19  24 N7        30.32F
MARFA          SUNNY     52  32  46 NE14G21   30.31F
MIDLAND AIRPK  SUNNY     58  31  36 N8G16     30.31F
MIDLAND INTL   SUNNY     59  31  34 N9        30.29F
ODESSA         SUNNY     57  30  35 N14G20    30.30F
PECOS          SUNNY     58  33  38 NW8       30.33F
PRESIDIO       FAIR      65  35  33 NW9G16    30.25F
SEMINOLE       SUNNY     56  24  28 NE5       30.31F
SNYDER         SUNNY     57  23  27 N10G20    30.28F
WINK           SUNNY     58  23  26 N8        30.30F
$$
...OTHER STATIONS IN TEXAS...

CITY           SKY/WX    TMP DP  RH WIND       PRES   REMARKS
ABILENE        SUNNY     59  32  36 N21       30.23F
AMARILLO       SUNNY     57  20  23 NW9       30.26F
AUSTIN         PTSUNNY   64  47  53 N23G30    30.09F
BROWNSVILLE    PTSUNNY   81  72  74 N10       29.93R
CORPUS CHRISTI PTSUNNY   68  55  63 N20G29    30.00F
DALLAS FTW     MOSUNNY   63  38  39 N21       30.13F
DEL RIO        PTSUNNY   65  41  41 NW15G28   30.19F
EL PASO        SUNNY     60  27  28 E7        30.30F
HOUSTON INT    PTSUNNY   65  52  62 NW23G35   29.98S
LUBBOCK        MOSUNNY   60  22  23 NW8       30.27F
SAN ANGELO     SUNNY     62  38  40 N14       30.23F
SAN ANTONIO    PTSUNNY   64  44  48 N25G32    30.08F
WACO           MOSUNNY   62  45  53 N20G25    30.14R
WICHITA FALLS  NOT AVBL
$$
...OTHER LOCATIONS IN NEW MEXICO...

CITY           SKY/WX    TMP DP  RH WIND       PRES   REMARKS
ALAMAGORDO     SUNNY     59  28  31 S15G22    30.30F
ALBUQUERQUE    MOSUNNY   55  20  25 W5        30.32F
CANNON AFB     NOT AVBL
CLOVIS         SUNNY     54  19  26 W6        30.28F
HOLLOMAN AFB   NOT AVBL
ROSWELL        SUNNY     59  23  25 VRB5      30.32F
RUIDOSO        SUNNY     50  14  23 NE7       30.34F
SANTA FE       SUNNY     51  19  28 VRB6      30.30F
TRUTH OR CONSE SUNNY     59  15  18 NE6       30.29F
TUCUMCARI      SUNNY     58  17  20 W9G17     30.26F
$$

USA.gov is the U.S. government's official web portal to all federal, state and local government web resources and services.